Погода в Эркен-Юрте

Россия / Карачаево-Черкесская Республика     44°26′51″N   41°54′55″E
темп.,
°C
ветер,
м/с
пор.,
м/с
влажн.,
%
обл.,
%
осадки,
мм/ч
давл.,
гПа
погр.,
м
27 октября, ср
ср2700:00+1в36882 0.0 1031172
03:000вюв34922 0.0 1030104
06:000вюв36941 0.0 1029145
09:00+4вюв48700 0.0 1028360
12:00+9вюв56510 0.0 1025559
15:00+10в45470 0.0 1024630
18:00+5в35650 0.0 102590
21:00+4юв22720 0.0 102428
28 октября, чт
чт2800:00+3ю22740 0.0 102412
03:00+3ююз22710 0.0 102410
06:00+3юз11720 0.0 102410
09:00+6з23560 0.0 1025191
12:00+11сз33440 0.0 1024595
15:00+11ссз33450 0.0 1023807
18:00+7ссз22730 0.0 102423
21:00+6з11860 0.0 102510
29 октября, пт
пт2900:00+5юз11900 0.0 102410
03:00+4ююз22910 0.0 102513
06:00+3ююз229120 0.0 102612
09:00+6юз117394 0.0 1026172
12:00+10с226124 0.0 1025673
15:00+11ссв225346 0.0 10241044
18:00+7всв375391 0.0 1026154
21:00+6в365348 0.0 1027139
30 октября, сб
сб3000:00+5всв375598 0.0 1028160
03:00+4в346111 0.0 102865
06:00+3в34665 0.0 102970
09:00+6в5105399 0.0 1029412
12:00+10в7104711 0.0 1028878
15:00+11в794488 0.0 10271059
18:00+8в512483 0.0 1029447
21:00+7в511540 0.0 1028301
31 октября, вс
вс3100:00+6в4105855 0.0 1028248
03:00+5вюв412640 0.0 1027296
06:00+5в41269100 0.0 1027329
09:00+8вюв7147814 0.0 1026537
12:00+11в9137380 0.0 1024708
15:00+10в9157990 0.0 1023734
18:00+9вюв81681100 0.0 1023650
21:00+9вюв6148793 0.0 1022516